Location: Marsån
(66.4167°N, 22.2833°E)
Time: 08:43:15
(UTC+00:00)

Cosmos 2360 Rocket - Pass Details

Date: 24 February 2024
Orbit: 833 x 845 km, 71.0° (Epoch: 20 April)

Event Time Altitude Azimuth Distance (km) Brightness Sun altitude
Rises 18:35:17 0° 314° (NW) 3,395 6.6 -19.5°
Reaches altitude 10° 18:37:49 10° 308° (NW) 2,458 5.7 -19.8°
Maximum altitude 18:43:06 43° 238° (WSW) 1,158 3.1 -20.2°
Enters shadow 18:47:03 17° 174° (S) 1,993 3.8 -20.6°
